Regional Weather Roundup
Issued by NWS

Home | Current Version | Previous Version | Text Only | Print | Product List | Glossary Off
Versions: 1 2 3 4 5 6 7 8 9 10 11 12 13 14 15 16 17 18 19 20 21 22 23 24 25 26 27 28 29 30 31 32 33 34 35 36 37 38 39 40 41 42 43 44 45 46 47 48 49 50

000
ASUS43 KBIS 291902
RWRND

NORTH DAKOTA REGIONAL WEATHER ROUNDUP
NATIONAL WEATHER SERVICE BISMARCK ND
200 PM CDT THU SEP 29 2016

NOTE: "FAIR" INDICATES FEW OR NO CLOUDS BELOW 12,000 FEET WITH NO
SIGNIFICANT WEATHER AND/OR OBSTRUCTIONS TO VISIBILITY.


NDZ001>003-009>011-017-292000-
NORTHWEST NORTH DAKOTA

CITY           SKY/WX    TMP DP  RH WIND       PRES   REMARKS
WILLISTON      SUNNY     74  43  32 SE16      30.20F
MINOT          SUNNY     70  45  40 SE14G24   30.29F
MINOT AFB      SUNNY     69  46  44 SE17      30.28F
$$

NDZ018>021-031>035-040>046-292000-
SOUTHWEST NORTH DAKOTA

CITY           SKY/WX    TMP DP  RH WIND       PRES   REMARKS
BISMARCK       SUNNY     68  46  45 SE17      30.33F
DICKINSON      SUNNY     70  43  37 SE20      30.23F
GARRISON         N/A     68  46  45 SE16G24   30.29F
HETTINGER ARPT SUNNY     73  44  35 SE17G25   30.26F
$$

NDZ004>008-012>016-024-026-027-054-292000-
NORTHEAST NORTH DAKOTA

CITY           SKY/WX    TMP DP  RH WIND       PRES   REMARKS
GRAND FORKS    PTSUNNY   64  46  52 SE9       30.44F
GRND FRKS AFB  MOSUNNY   64  47  54 S7        30.44F
DEVILS LAKE    SUNNY     63  49  60 SE13G20   30.40F
$$

NDZ022-023-025-028>030-036>039-047>053-292000-
SOUTHEAST NORTH DAKOTA

CITY           SKY/WX    TMP DP  RH WIND       PRES   REMARKS
FARGO          MOSUNNY   66  45  46 SE12      30.44F
JAMESTOWN      MOSUNNY   65  49  56 S10       30.39F
$$





USA.gov is the U.S. government's official web portal to all federal, state and local government web resources and services.